Regional Weather Roundup
Issued by NWS

Home | Current Version | Previous Version | Graphics & Text | Print | Product List | Glossary On
Versions: 1 2 3 4 5 6 7 8 9 10 11 12 13 14 15 16 17 18 19 20 21 22 23 24 25 26 27 28 29 30 31 32 33 34 35 36 37 38 39 40 41 42 43 44 45 46 47 48 49 50
000
ASUS43 KLSX 212257
RWRMO

WEATHER SUMMARY FOR MISSOURI
NATIONAL WEATHER SERVICE SPRINGFIELD MO
500 PM CST TUE NOV 21 2017

NOTE: "FAIR" INDICATES FEW OR NO CLOUDS BELOW 12,000 FEET WITH NO
       SIGNIFICANT WEATHER AND/OR OBSTRUCTIONS TO VISIBILITY.
       CURRENT SKY AND/OR WEATHER CONDITIONS ARE NOT AVAILABLE FOR
       CHILLICOTHE AND FARMINGTON.

MOZ001>031-035>038-043-044-053-054-220000-
...NORTHERN AND WESTERN MISSOURI...

CITY           SKY/WX    TMP DP  RH WIND       PRES   REMARKS
KANSAS CTY INT CLEAR     35  18  49 N12G23    30.27R WCI  27
LEE`S SUMMIT   CLEAR     40  17  39 N16       30.25R
ST JOSEPH      CLEAR     34  15  46 N18G25    30.31R WCI  23
CHILLICOTHE      N/A     36  18  48 NW6       30.26R

$$
MOZ066>068-077>081-088>096-101>105-220000-
...SOUTHWEST MISSOURI...

CITY           SKY/WX    TMP DP  RH WIND       PRES   REMARKS
SPRINGFIELD    CLEAR     50  32  50 N16       30.13R
JOPLIN         CLEAR     50  31  48 N14G24    30.17R
BRANSON        CLEAR     54  32  43 N9        30.10R

$$
MOZ032>034-039>042-045>050-055>058-069>072-220000-
...CENTRAL MISSOURI...

CITY           SKY/WX    TMP DP  RH WIND       PRES   REMARKS
COLUMBIA       NOT AVBL
JEFFERSON CITY CLEAR     49  20  31 NW7       30.16R
ROLLA          CLEAR     47  25  42 NW12G21   30.13R
SEDALIA        CLEAR     44  19  36 N14       30.20R
WARRENSBURG    CLEAR     41  16  36 NW12      30.22R

$$
MOZ051-052-059>065-220000-
...EAST CENTRAL MISSOURI...

CITY           SKY/WX    TMP DP  RH WIND       PRES   REMARKS
ST LOUIS INTL  CLOUDY    45  22  40 NW16G25   30.13R

$$
MOZ072>076-082>087-097>100-106>115-220000-
...SOUTH CENTRAL AND SOUTHEAST MISSOURI...

CITY           SKY/WX    TMP DP  RH WIND       PRES   REMARKS
CAPE GIRARDEAU CLEAR     50  39  66 S3        30.02R
POPLAR BLUFF   CLEAR     52  40  63 S3        30.02R
WEST PLAINS    CLEAR     53  32  44 N14       30.08R

$$


USA.gov is the U.S. government's official web portal to all federal, state and local government web resources and services.